Regional Weather Roundup
Issued by NWS

Home | Current Version | Previous Version | Graphics & Text | Print | Product List | Glossary On
Versions: 1 2 3 4 5 6 7 8 9 10 11 12 13 14 15 16 17 18 19 20 21 22 23 24 25 26 27 28 29 30 31 32 33 34 35 36 37 38 39 40 41 42 43 44 45 46 47 48 49 50
000
ASUS45 KBOI 290110
RWRID

IDAHO REGIONAL WEATHER ROUNDUP
NATIONAL WEATHER SERVICE BOISE ID
700 PM MDT TUE JUL 28 2015

NOTE: "FAIR" INDICATES FEW OR NO CLOUDS BELOW 12000 FEET
WITH NO SIGNIFICANT WEATHER AND/OR OBSTRUCTIONS TO VISIBILITY

IDZ012-014-290200-
SOUTHWEST IDAHO


CITY           SKY/WX    TMP DP  RH WIND       PRES   REMARKS
BOISE          SUNNY     80  25  13 NW6       30.17F
CALDWELL       SUNNY     81  37  21 NW6       30.18S
MOUNTAIN HOME  SUNNY     79  27  14 NE5       30.17F
$$

IDZ016-017-290200-
SOUTHCENTRAL IDAHO


CITY           SKY/WX    TMP DP  RH WIND       PRES   REMARKS
BURLEY         SUNNY     72  27  18 VRB3      30.23F
JEROME         SUNNY     72  22  15 S5        30.23F
TWIN FALLS     SUNNY     75  29  18 NW7       30.21F
$$

IDZ019>023-290200-
SOUTHEAST IDAHO


CITY           SKY/WX    TMP DP  RH WIND       PRES   REMARKS
IDAHO FALLS    MOSUNNY   70  30  22 E8        30.28F
POCATELLO      MOSUNNY   72  23  16 VRB3      30.27F
REXBURG        SUNNY     68  31  25 CALM      30.29S
$$

IDZ006-010-011-018-031-032-290200-
CENTRAL IDAHO MOUNTAINS


CITY           SKY/WX    TMP DP  RH WIND       PRES   REMARKS
MCCALL         SUNNY     69  31  24 S6        30.26S
HAILEY         MOSUNNY   66  37  34 SE12      30.29S
STANLEY          N/A     66  30  26 N7        30.33S
SALMON         MOSUNNY   70  39  32 NW5       30.23S
CHALLIS        SUNNY     69  35  28 NW5       30.26F
$$

IDZ002-004-006-007-026-290200-
NORTHERN IDAHO


CITY           SKY/WX    TMP DP  RH WIND       PRES   REMARKS
LEWISTON       SUNNY     84  34  16 CALM      30.13F
LOWELL           N/A     73  48  41 CALM      30.15F
COEUR D`ALENE  MOSUNNY   79  37  22 SW9       30.15F
MULLAN PASS    PTSUNNY   59  38  45 VRB5      30.33S
$$



USA.gov is the U.S. government's official web portal to all federal, state and local government web resources and services.